Time,TemperatureF,DewpointF,PressureIn,WindDirection,WindDirectionDegrees,WindSpeedMPH,WindSpeedGustMPH,Humidity,HourlyPrecipIn,Conditions,Clouds,dailyrainin,SoftwareType,DateUTC
2013-03-29 00:00:00,35.9,30.3,30.41,East,98,0.0,0.0,80,0.00,,,0.00,Wunderground v.1.15,2013-03-29 05:00:00,
2013-03-29 00:05:00,35.8,30.2,30.41,East,98,0.0,0.0,80,0.00,,,0.00,Wunderground v.1.15,2013-03-29 05:05:00,
2013-03-29 00:15:00,35.5,30.5,30.41,East,98,0.0,0.0,82,0.00,,,0.00,Wunderground v.1.15,2013-03-29 05:15:00,
2013-03-29 00:20:00,35.3,30.4,30.41,East,98,0.0,0.0,82,0.00,,,0.00,Wunderground v.1.15,2013-03-29 05:20:00,
2013-03-29 00:25:00,35.3,30.4,30.41,East,98,0.0,0.0,82,0.00,,,0.00,Wunderground v.1.15,2013-03-29 05:25:00,
2013-03-29 00:35:00,35.1,30.5,30.41,East,98,0.0,0.0,83,0.00,,,0.00,Wunderground v.1.15,2013-03-29 05:35:00,
2013-03-29 00:40:00,35.0,30.4,30.41,East,98,0.0,0.0,83,0.00,,,0.00,Wunderground v.1.15,2013-03-29 05:40:00,
2013-03-29 00:45:00,34.9,30.3,30.41,East,98,0.0,0.0,83,0.00,,,0.00,Wunderground v.1.15,2013-03-29 05:45:00,
2013-03-29 00:50:00,34.8,30.5,30.41,East,98,0.0,0.0,84,0.00,,,0.00,Wunderground v.1.15,2013-03-29 05:50:00,
2013-03-29 00:55:00,34.6,30.0,30.41,East,98,0.0,0.0,83,0.00,,,0.00,Wunderground v.1.15,2013-03-29 05:55:00,
2013-03-29 01:05:00,34.4,29.8,30.41,East,98,0.0,0.0,83,0.00,,,0.00,Wunderground v.1.15,2013-03-29 06:05:00,
2013-03-29 01:15:00,34.3,29.7,30.41,East,98,0.0,0.0,83,0.00,,,0.00,Wunderground v.1.15,2013-03-29 06:15:00,
2013-03-29 01:20:00,34.1,29.5,30.41,East,98,0.0,0.0,83,0.00,,,0.00,Wunderground v.1.15,2013-03-29 06:20:00,
2013-03-29 01:25:00,33.9,29.6,30.41,East,98,0.0,0.0,84,0.00,,,0.00,Wunderground v.1.15,2013-03-29 06:25:00,
2013-03-29 01:30:00,33.8,29.5,30.41,East,98,0.0,0.0,84,0.00,,,0.00,Wunderground v.1.15,2013-03-29 06:30:00,
2013-03-29 01:35:00,33.6,29.3,30.41,East,98,0.0,0.0,84,0.00,,,0.00,Wunderground v.1.15,2013-03-29 06:35:00,
2013-03-29 01:40:00,33.5,29.2,30.41,East,98,0.0,0.0,84,0.00,,,0.00,Wunderground v.1.15,2013-03-29 06:40:00,
2013-03-29 01:45:00,33.4,29.1,30.41,East,98,0.0,0.0,84,0.00,,,0.00,Wunderground v.1.15,2013-03-29 06:45:00,
2013-03-29 01:55:00,33.2,29.2,30.42,East,98,0.0,0.0,85,0.00,,,0.00,Wunderground v.1.15,2013-03-29 06:55:00,
2013-03-29 02:05:00,33.0,29.0,30.41,East,98,0.0,0.0,85,0.00,,,0.00,Wunderground v.1.15,2013-03-29 07:05:00,
2013-03-29 02:15:00,32.8,29.1,30.41,East,98,0.0,0.0,86,0.00,,,0.00,Wunderground v.1.15,2013-03-29 07:15:00,
2013-03-29 02:25:00,32.4,28.7,30.41,East,98,0.0,0.0,86,0.00,,,0.00,Wunderground v.1.15,2013-03-29 07:25:00,
2013-03-29 02:30:00,32.2,28.5,30.41,East,98,0.0,0.0,86,0.00,,,0.00,Wunderground v.1.15,2013-03-29 07:30:00,
2013-03-29 02:35:00,32.0,28.3,30.40,East,98,0.0,0.0,86,0.00,,,0.00,Wunderground v.1.15,2013-03-29 07:35:00,
2013-03-29 02:40:00,31.8,28.1,30.40,East,98,0.0,0.0,86,0.00,,,0.00,Wunderground v.1.15,2013-03-29 07:40:00,
2013-03-29 02:45:00,31.5,27.8,30.40,East,98,0.0,0.0,86,0.00,,,0.00,Wunderground v.1.15,2013-03-29 07:45:00,
2013-03-29 02:50:00,31.3,27.6,30.40,East,98,0.0,0.0,86,0.00,,,0.00,Wunderground v.1.15,2013-03-29 07:50:00,
2013-03-29 02:55:00,31.0,27.3,30.40,East,98,0.0,0.0,86,0.00,,,0.00,Wunderground v.1.15,2013-03-29 07:55:00,
2013-03-29 03:00:00,30.6,27.2,30.40,East,98,0.0,0.0,87,0.00,,,0.00,Wunderground v.1.15,2013-03-29 08:00:00,
2013-03-29 03:05:00,30.3,26.9,30.40,East,98,0.0,0.0,87,0.00,,,0.00,Wunderground v.1.15,2013-03-29 08:05:00,
2013-03-29 03:15:00,29.8,26.4,30.40,East,98,0.0,0.0,87,0.00,,,0.00,Wunderground v.1.15,2013-03-29 08:15:00,
2013-03-29 03:20:00,29.7,26.6,30.39,East,98,0.0,0.0,88,0.00,,,0.00,Wunderground v.1.15,2013-03-29 08:20:00,
2013-03-29 03:30:00,29.4,26.3,30.39,East,98,0.0,0.0,88,0.00,,,0.00,Wunderground v.1.15,2013-03-29 08:30:00,
2013-03-29 03:35:00,29.2,26.1,30.39,East,98,0.0,0.0,88,0.00,,,0.00,Wunderground v.1.15,2013-03-29 08:35:00,
2013-03-29 03:40:00,29.0,25.9,30.39,East,98,0.0,0.0,88,0.00,,,0.00,Wunderground v.1.15,2013-03-29 08:40:00,
2013-03-29 03:45:00,28.8,25.7,30.39,East,98,0.0,0.0,88,0.00,,,0.00,Wunderground v.1.15,2013-03-29 08:45:00,
2013-03-29 03:50:00,28.7,25.6,30.39,East,98,0.0,0.0,88,0.00,,,0.00,Wunderground v.1.15,2013-03-29 08:50:00,
2013-03-29 04:00:00,28.4,25.6,30.40,East,98,0.0,0.0,89,0.00,,,0.00,Wunderground v.1.15,2013-03-29 09:00:00,
2013-03-29 04:05:00,28.1,25.3,30.39,East,98,0.0,0.0,89,0.00,,,0.00,Wunderground v.1.15,2013-03-29 09:05:00,
2013-03-29 04:15:00,27.8,25.0,30.39,East,98,0.0,0.0,89,0.00,,,0.00,Wunderground v.1.15,2013-03-29 09:15:00,
2013-03-29 04:20:00,27.7,24.9,30.39,East,98,0.0,0.0,89,0.00,,,0.00,Wunderground v.1.15,2013-03-29 09:20:00,
2013-03-29 04:25:00,27.6,24.8,30.39,East,98,0.0,0.0,89,0.00,,,0.00,Wunderground v.1.15,2013-03-29 09:25:00,
2013-03-29 04:30:00,27.5,25.0,30.39,East,98,0.0,0.0,90,0.00,,,0.00,Wunderground v.1.15,2013-03-29 09:30:00,
2013-03-29 04:35:00,27.4,24.6,30.39,East,98,0.0,0.0,89,0.00,,,0.00,Wunderground v.1.15,2013-03-29 09:35:00,
2013-03-29 04:45:00,27.3,24.8,30.39,East,98,0.0,0.0,90,0.00,,,0.00,Wunderground v.1.15,2013-03-29 09:45:00,
2013-03-29 04:50:00,27.2,24.7,30.39,East,98,0.0,0.0,90,0.00,,,0.00,Wunderground v.1.15,2013-03-29 09:50:00,
2013-03-29 04:55:00,27.0,24.5,30.39,East,98,0.0,0.0,90,0.00,,,0.00,Wunderground v.1.15,2013-03-29 09:55:00,
2013-03-29 05:00:00,26.8,24.3,30.39,East,98,0.0,0.0,90,0.00,,,0.00,Wunderground v.1.15,2013-03-29 10:00:00,
2013-03-29 05:05:00,26.7,24.2,30.39,East,98,0.0,0.0,90,0.00,,,0.00,Wunderground v.1.15,2013-03-29 10:05:00,
2013-03-29 05:15:00,26.6,24.1,30.39,East,98,0.0,0.0,90,0.00,,,0.00,Wunderground v.1.15,2013-03-29 10:15:00,
2013-03-29 05:20:00,26.6,24.1,30.39,East,98,0.0,0.0,90,0.00,,,0.00,Wunderground v.1.15,2013-03-29 10:20:00,
2013-03-29 05:25:00,26.5,24.0,30.39,East,98,0.0,0.0,90,0.00,,,0.00,Wunderground v.1.15,2013-03-29 10:25:00,
2013-03-29 05:35:00,26.3,24.0,30.39,East,98,0.0,0.0,91,0.00,,,0.00,Wunderground v.1.15,2013-03-29 10:35:00,
2013-03-29 05:40:00,26.3,23.8,30.39,East,98,0.0,0.0,90,0.00,,,0.00,Wunderground v.1.15,2013-03-29 10:40:00,
2013-03-29 05:45:00,26.2,23.9,30.39,East,98,0.0,0.0,91,0.00,,,0.00,Wunderground v.1.15,2013-03-29 10:45:00,
2013-03-29 05:50:00,26.1,23.8,30.39,East,98,0.0,0.0,91,0.00,,,0.00,Wunderground v.1.15,2013-03-29 10:50:00,
2013-03-29 06:00:00,26.0,23.7,30.39,East,98,0.0,0.0,91,0.00,,,0.00,Wunderground v.1.15,2013-03-29 11:00:00,
2013-03-29 06:05:00,25.9,23.6,30.39,East,98,0.0,0.0,91,0.00,,,0.00,Wunderground v.1.15,2013-03-29 11:05:00,
2013-03-29 06:15:00,25.6,23.3,30.39,East,98,0.0,0.0,91,0.00,,,0.00,Wunderground v.1.15,2013-03-29 11:15:00,
2013-03-29 06:20:00,25.5,23.2,30.39,East,98,0.0,0.0,91,0.00,,,0.00,Wunderground v.1.15,2013-03-29 11:20:00,
2013-03-29 06:30:00,25.5,23.2,30.40,East,98,0.0,0.0,91,0.00,,,0.00,Wunderground v.1.15,2013-03-29 11:30:00,
2013-03-29 06:35:00,25.4,23.1,30.40,East,98,0.0,0.0,91,0.00,,,0.00,Wunderground v.1.15,2013-03-29 11:35:00,
2013-03-29 06:40:00,25.3,23.0,30.40,East,98,0.0,0.0,91,0.00,,,0.00,Wunderground v.1.15,2013-03-29 11:40:00,
2013-03-29 06:45:00,25.3,23.0,30.40,East,98,0.0,0.0,91,0.00,,,0.00,Wunderground v.1.15,2013-03-29 11:45:00,
2013-03-29 06:55:00,25.2,22.9,30.41,East,98,0.0,0.0,91,0.00,,,0.00,Wunderground v.1.15,2013-03-29 11:55:00,
2013-03-29 07:00:00,25.2,22.9,30.40,East,98,0.0,0.0,91,0.00,,,0.00,Wunderground v.1.15,2013-03-29 12:00:00,
2013-03-29 07:05:00,25.2,23.2,30.40,East,98,0.0,0.0,92,0.00,,,0.00,Wunderground v.1.15,2013-03-29 12:05:00,
2013-03-29 07:15:00,25.1,23.1,30.41,East,98,0.0,0.0,92,0.00,,,0.00,Wunderground v.1.15,2013-03-29 12:15:00,
2013-03-29 07:20:00,25.1,23.1,30.41,East,98,0.0,0.0,92,0.00,,,0.00,Wunderground v.1.15,2013-03-29 12:20:00,
2013-03-29 07:30:00,25.1,23.1,30.41,East,98,0.0,0.0,92,0.00,,,0.00,Wunderground v.1.15,2013-03-29 12:30:00,
2013-03-29 07:35:00,25.2,23.2,30.41,East,98,0.0,0.0,92,0.00,,,0.00,Wunderground v.1.15,2013-03-29 12:35:00,
2013-03-29 07:40:00,25.7,23.7,30.41,East,98,0.0,0.0,92,0.00,,,0.00,Wunderground v.1.15,2013-03-29 12:40:00,
2013-03-29 07:45:00,26.3,24.6,30.41,East,98,0.0,0.0,93,0.00,,,0.00,Wunderground v.1.15,2013-03-29 12:45:00,
2013-03-29 07:50:00,26.7,24.9,30.41,East,98,0.0,0.0,93,0.00,,,0.00,Wunderground v.1.15,2013-03-29 12:50:00,
2013-03-29 07:55:00,26.9,24.9,30.41,East,98,0.0,0.0,92,0.00,,,0.00,Wunderground v.1.15,2013-03-29 12:55:00,
2013-03-29 08:05:00,27.9,26.1,30.42,East,98,0.0,0.0,93,0.00,,,0.00,Wunderground v.1.15,2013-03-29 13:05:00,
2013-03-29 08:15:00,29.2,27.4,30.41,East,98,0.0,0.0,93,0.00,,,0.00,Wunderground v.1.15,2013-03-29 13:15:00,
2013-03-29 08:20:00,30.1,28.3,30.42,East,98,0.0,0.0,93,0.00,,,0.00,Wunderground v.1.15,2013-03-29 13:20:00,
2013-03-29 08:25:00,31.5,29.7,30.42,East,98,0.0,0.0,93,0.00,,,0.00,Wunderground v.1.15,2013-03-29 13:25:00,
2013-03-29 08:30:00,32.6,30.8,30.42,East,98,0.0,0.0,93,0.00,,,0.00,Wunderground v.1.15,2013-03-29 13:30:00,
2013-03-29 08:35:00,33.7,31.6,30.42,East,98,0.0,0.0,92,0.00,,,0.00,Wunderground v.1.15,2013-03-29 13:35:00,
2013-03-29 08:40:00,35.0,32.9,30.42,East,98,0.0,0.0,92,0.00,,,0.00,Wunderground v.1.15,2013-03-29 13:40:00,
2013-03-29 08:50:00,37.5,32.8,30.42,East,98,0.0,0.0,83,0.00,,,0.00,Wunderground v.1.15,2013-03-29 13:50:00,
2013-03-29 08:55:00,38.4,31.5,30.42,East,98,0.0,1.0,76,0.00,,,0.00,Wunderground v.1.15,2013-03-29 13:55:00,
2013-03-29 09:00:00,39.0,31.7,30.42,East,98,0.0,0.0,75,0.00,,,0.00,Wunderground v.1.15,2013-03-29 14:00:00,
2013-03-29 09:05:00,39.5,30.9,30.42,East,98,0.0,1.0,71,0.00,,,0.00,Wunderground v.1.15,2013-03-29 14:05:00,
2013-03-29 09:15:00,40.0,29.9,30.42,SE,128,1.0,4.0,67,0.00,,,0.00,Wunderground v.1.15,2013-03-29 14:15:00,
2013-03-29 09:20:00,40.2,29.7,30.42,SE,129,1.0,1.0,66,0.00,,,0.00,Wunderground v.1.15,2013-03-29 14:20:00,
2013-03-29 09:25:00,40.8,30.7,30.42,SE,129,1.0,2.0,67,0.00,,,0.00,Wunderground v.1.15,2013-03-29 14:25:00,
2013-03-29 09:30:00,41.5,31.0,30.42,SE,125,1.0,1.0,66,0.00,,,0.00,Wunderground v.1.15,2013-03-29 14:30:00,
2013-03-29 09:40:00,42.9,31.2,30.42,SE,126,0.0,2.0,63,0.00,,,0.00,Wunderground v.1.15,2013-03-29 14:40:00,
2013-03-29 09:45:00,42.5,29.2,30.42,SSE,155,2.0,5.0,59,0.00,,,0.00,Wunderground v.1.15,2013-03-29 14:45:00,
2013-03-29 09:50:00,42.5,29.6,30.42,SSE,152,3.0,3.0,60,0.00,,,0.00,Wunderground v.1.15,2013-03-29 14:50:00,
2013-03-29 09:55:00,43.0,30.5,30.42,SSE,152,2.0,3.0,61,0.00,,,0.00,Wunderground v.1.15,2013-03-29 14:55:00,
2013-03-29 10:00:00,43.6,30.6,30.42,SSE,150,1.0,2.0,60,0.00,,,0.00,Wunderground v.1.15,2013-03-29 15:00:00,
2013-03-29 10:05:00,44.0,30.2,30.42,East,99,1.0,2.0,58,0.00,,,0.00,Wunderground v.1.15,2013-03-29 15:05:00,
2013-03-29 10:15:00,44.3,30.9,30.42,SE,140,1.0,1.0,59,0.00,,,0.00,Wunderground v.1.15,2013-03-29 15:15:00,
2013-03-29 10:20:00,45.0,31.9,30.42,SE,140,1.0,1.0,60,0.00,,,0.00,Wunderground v.1.15,2013-03-29 15:20:00,
2013-03-29 10:25:00,45.0,30.7,30.42,SE,142,1.0,1.0,57,0.00,,,0.00,Wunderground v.1.15,2013-03-29 15:25:00,
2013-03-29 10:35:00,45.7,32.2,30.42,ESE,102,0.0,1.0,59,0.00,,,0.00,Wunderground v.1.15,2013-03-29 15:35:00,
2013-03-29 10:40:00,45.6,31.2,30.42,SSE,150,2.0,2.0,57,0.00,,,0.00,Wunderground v.1.15,2013-03-29 15:40:00,
2013-03-29 10:45:00,45.6,31.2,30.42,SSE,150,3.0,3.0,57,0.00,,,0.00,Wunderground v.1.15,2013-03-29 15:45:00,
2013-03-29 10:50:00,46.2,31.4,30.42,ESE,120,2.0,2.0,56,0.00,,,0.00,Wunderground v.1.15,2013-03-29 15:50:00,
2013-03-29 10:55:00,46.7,31.8,30.42,SE,134,1.0,4.0,56,0.00,,,0.00,Wunderground v.1.15,2013-03-29 15:55:00,
2013-03-29 11:00:00,46.8,32.4,30.42,SE,133,1.0,4.0,57,0.00,,,0.00,Wunderground v.1.15,2013-03-29 16:00:00,
2013-03-29 11:05:00,47.0,31.7,30.42,SSE,153,2.0,6.0,55,0.00,,,0.00,Wunderground v.1.15,2013-03-29 16:05:00,
2013-03-29 11:15:00,46.9,32.0,30.42,SE,140,3.0,3.0,56,0.00,,,0.00,Wunderground v.1.15,2013-03-29 16:15:00,
2013-03-29 11:20:00,47.6,32.7,30.42,SE,142,2.0,2.0,56,0.00,,,0.00,Wunderground v.1.15,2013-03-29 16:20:00,
2013-03-29 11:25:00,47.2,30.9,30.41,SE,146,2.0,2.0,53,0.00,,,0.00,Wunderground v.1.15,2013-03-29 16:25:00,
2013-03-29 11:35:00,48.2,32.8,30.41,SSE,167,2.0,7.0,55,0.00,,,0.00,Wunderground v.1.15,2013-03-29 16:35:00,
2013-03-29 11:40:00,48.3,33.3,30.41,ESE,105,3.0,4.0,56,0.00,,,0.00,Wunderground v.1.15,2013-03-29 16:40:00,
2013-03-29 11:45:00,48.8,32.4,30.41,ESE,105,2.0,4.0,53,0.00,,,0.00,Wunderground v.1.15,2013-03-29 16:45:00,
2013-03-29 11:50:00,49.1,33.2,30.41,SE,132,1.0,4.0,54,0.00,,,0.00,Wunderground v.1.15,2013-03-29 16:50:00,
2013-03-29 11:55:00,48.3,32.9,30.41,SSE,165,2.0,6.0,55,0.00,,,0.00,Wunderground v.1.15,2013-03-29 16:55:00,
2013-03-29 12:00:00,48.6,32.2,30.41,SE,140,2.0,4.0,53,0.00,,,0.00,Wunderground v.1.15,2013-03-29 17:00:00,
2013-03-29 12:05:00,48.8,32.9,30.41,SE,146,2.0,4.0,54,0.00,,,0.00,Wunderground v.1.15,2013-03-29 17:05:00,
2013-03-29 12:15:00,49.8,33.8,30.40,SE,143,2.0,2.0,54,0.00,,,0.00,Wunderground v.1.15,2013-03-29 17:15:00,
2013-03-29 12:20:00,49.2,33.3,30.40,SSE,153,3.0,3.0,54,0.00,,,0.00,Wunderground v.1.15,2013-03-29 17:20:00,
2013-03-29 12:30:00,50.5,34.0,30.40,SE,139,1.0,5.0,53,0.00,,,0.00,Wunderground v.1.15,2013-03-29 17:30:00,
2013-03-29 12:35:00,50.1,33.1,30.40,SE,132,2.0,5.0,52,0.00,,,0.00,Wunderground v.1.15,2013-03-29 17:35:00,
2013-03-29 13:20:00,51.9,34.8,30.39,East,80,2.0,2.0,52,0.00,,,0.00,Wunderground v.1.15,2013-03-29 18:20:00,
2013-03-29 13:25:00,51.9,34.3,30.39,SE,125,2.0,2.0,51,0.00,,,0.00,Wunderground v.1.15,2013-03-29 18:25:00,
2013-03-29 13:30:00,51.5,34.0,30.38,ESE,102,2.0,4.0,51,0.00,,,0.00,Wunderground v.1.15,2013-03-29 18:30:00,
2013-03-29 13:35:00,51.9,33.3,30.38,East,86,1.0,4.0,49,0.00,,,0.00,Wunderground v.1.15,2013-03-29 18:35:00,
2013-03-29 13:45:00,52.7,31.9,30.38,NNE,22,1.0,1.0,45,0.00,,,0.00,Wunderground v.1.15,2013-03-29 18:45:00,
2013-03-29 13:50:00,53.2,32.9,30.38,NNW,346,2.0,2.0,46,0.00,,,0.00,Wunderground v.1.15,2013-03-29 18:50:00,
2013-03-29 13:55:00,53.6,33.3,30.37,NNW,344,2.0,2.0,46,0.00,,,0.00,Wunderground v.1.15,2013-03-29 18:55:00,
2013-03-29 14:00:00,53.9,33.0,30.37,NNW,340,1.0,5.0,45,0.00,,,0.00,Wunderground v.1.15,2013-03-29 19:00:00,
2013-03-29 14:05:00,53.5,33.2,30.37,East,99,1.0,5.0,46,0.00,,,0.00,Wunderground v.1.15,2013-03-29 19:05:00,
2013-03-29 14:15:00,54.0,33.1,30.37,East,98,1.0,2.0,45,0.00,,,0.00,Wunderground v.1.15,2013-03-29 19:15:00,
2013-03-29 14:20:00,53.7,32.8,30.37,SE,137,1.0,6.0,45,0.00,,,0.00,Wunderground v.1.15,2013-03-29 19:20:00,
2013-03-29 14:25:00,52.7,32.5,30.36,SE,130,2.0,6.0,46,0.00,,,0.00,Wunderground v.1.15,2013-03-29 19:25:00,
2013-03-29 14:30:00,53.1,32.3,30.36,SE,137,1.0,1.0,45,0.00,,,0.00,Wunderground v.1.15,2013-03-29 19:30:00,
2013-03-29 14:35:00,52.4,31.7,30.36,SE,141,1.0,2.0,45,0.00,,,0.00,Wunderground v.1.15,2013-03-29 19:35:00,
2013-03-29 14:40:00,52.4,32.7,30.36,SE,144,1.0,1.0,47,0.00,,,0.00,Wunderground v.1.15,2013-03-29 19:40:00,
2013-03-29 14:50:00,54.5,33.6,30.35,SSE,157,1.0,1.0,45,0.00,,,0.00,Wunderground v.1.15,2013-03-29 19:50:00,
2013-03-29 14:55:00,55.1,33.6,30.35,SSE,165,1.0,5.0,44,0.00,,,0.00,Wunderground v.1.15,2013-03-29 19:55:00,
2013-03-29 15:00:00,53.9,33.6,30.35,South,176,2.0,4.0,46,0.00,,,0.00,Wunderground v.1.15,2013-03-29 20:00:00,
2013-03-29 15:05:00,53.4,33.7,30.35,SE,146,4.0,7.0,47,0.00,,,0.00,Wunderground v.1.15,2013-03-29 20:05:00,
2013-03-29 15:15:00,53.8,33.5,30.34,SSE,162,2.0,3.0,46,0.00,,,0.00,Wunderground v.1.15,2013-03-29 20:15:00,
2013-03-29 15:20:00,54.2,33.9,30.34,NNW,331,1.0,1.0,46,0.00,,,0.00,Wunderground v.1.15,2013-03-29 20:20:00,
2013-03-29 15:25:00,55.3,33.7,30.34,NE,42,1.0,2.0,44,0.00,,,0.00,Wunderground v.1.15,2013-03-29 20:25:00,
2013-03-29 15:30:00,55.3,33.7,30.34,NE,55,1.0,1.0,44,0.00,,,0.00,Wunderground v.1.15,2013-03-29 20:30:00,
2013-03-29 15:35:00,55.7,32.9,30.34,ENE,57,0.0,1.0,42,0.00,,,0.00,Wunderground v.1.15,2013-03-29 20:35:00,
2013-03-29 15:40:00,56.5,34.3,30.34,WNW,294,0.0,0.0,43,0.00,,,0.00,Wunderground v.1.15,2013-03-29 20:40:00,
2013-03-29 15:50:00,55.3,33.7,30.33,SE,136,2.0,5.0,44,0.00,,,0.00,Wunderground v.1.15,2013-03-29 20:50:00,
2013-03-29 15:55:00,54.9,33.9,30.33,SSE,148,2.0,5.0,45,0.00,,,0.00,Wunderground v.1.15,2013-03-29 20:55:00,
2013-03-29 16:00:00,54.6,33.1,30.33,SSE,152,2.0,5.0,44,0.00,,,0.00,Wunderground v.1.15,2013-03-29 21:00:00,
2013-03-29 16:05:00,53.6,33.8,30.33,South,171,3.0,5.0,47,0.00,,,0.00,Wunderground v.1.15,2013-03-29 21:05:00,
2013-03-29 16:15:00,53.3,34.6,30.33,SE,142,3.0,4.0,49,0.00,,,0.00,Wunderground v.1.15,2013-03-29 21:15:00,
2013-03-29 16:20:00,52.6,32.9,30.33,SSE,153,4.0,4.0,47,0.00,,,0.00,Wunderground v.1.15,2013-03-29 21:20:00,
2013-03-29 16:25:00,52.3,33.2,30.33,SE,138,4.0,4.0,48,0.00,,,0.00,Wunderground v.1.15,2013-03-29 21:25:00,
2013-03-29 16:30:00,52.5,32.8,30.32,SE,141,3.0,3.0,47,0.00,,,0.00,Wunderground v.1.15,2013-03-29 21:30:00,
2013-03-29 16:35:00,52.5,32.8,30.32,SSE,147,1.0,3.0,47,0.00,,,0.00,Wunderground v.1.15,2013-03-29 21:35:00,
2013-03-29 16:40:00,53.1,33.9,30.32,East,96,1.0,1.0,48,0.00,,,0.00,Wunderground v.1.15,2013-03-29 21:40:00,
2013-03-29 16:45:00,53.0,33.3,30.32,SSE,147,2.0,2.0,47,0.00,,,0.00,Wunderground v.1.15,2013-03-29 21:45:00,
2013-03-29 16:55:00,52.7,33.5,30.32,SSE,156,3.0,6.0,48,0.00,,,0.00,Wunderground v.1.15,2013-03-29 21:55:00,
2013-03-29 17:00:00,52.6,32.9,30.32,SSE,154,4.0,5.0,47,0.00,,,0.00,Wunderground v.1.15,2013-03-29 22:00:00,
2013-03-29 17:05:00,52.6,34.0,30.32,SSE,156,3.0,5.0,49,0.00,,,0.00,Wunderground v.1.15,2013-03-29 22:05:00,
2013-03-29 17:15:00,53.3,33.0,30.32,ESE,105,1.0,4.0,46,0.00,,,0.00,Wunderground v.1.15,2013-03-29 22:15:00,
2013-03-29 17:20:00,53.2,32.9,30.31,ESE,105,1.0,1.0,46,0.00,,,0.00,Wunderground v.1.15,2013-03-29 22:20:00,
2013-03-29 17:25:00,53.1,32.8,30.31,ESE,105,1.0,4.0,46,0.00,,,0.00,Wunderground v.1.15,2013-03-29 22:25:00,
2013-03-29 17:35:00,53.2,32.4,30.32,ESE,103,1.0,5.0,45,0.00,,,0.00,Wunderground v.1.15,2013-03-29 22:35:00,
2013-03-29 17:40:00,52.9,32.7,30.32,SE,136,1.0,1.0,46,0.00,,,0.00,Wunderground v.1.15,2013-03-29 22:40:00,
2013-03-29 17:45:00,52.9,33.2,30.31,SE,136,1.0,1.0,47,0.00,,,0.00,Wunderground v.1.15,2013-03-29 22:45:00,
2013-03-29 17:55:00,52.8,33.1,30.32,SE,140,1.0,1.0,47,0.00,,,0.00,Wunderground v.1.15,2013-03-29 22:55:00,
2013-03-29 18:05:00,52.6,33.5,30.32,SSE,149,1.0,1.0,48,0.00,,,0.00,Wunderground v.1.15,2013-03-29 23:05:00,
2013-03-29 18:15:00,52.4,34.3,30.32,ESE,115,1.0,1.0,50,0.00,,,0.00,Wunderground v.1.15,2013-03-29 23:15:00,
2013-03-29 18:20:00,52.3,32.6,30.31,ESE,115,0.0,0.0,47,0.00,,,0.00,Wunderground v.1.15,2013-03-29 23:20:00,
2013-03-29 18:25:00,52.3,33.2,30.32,ESE,115,0.0,0.0,48,0.00,,,0.00,Wunderground v.1.15,2013-03-29 23:25:00,
2013-03-29 18:35:00,52.1,33.5,30.31,ESE,115,0.0,1.0,49,0.00,,,0.00,Wunderground v.1.15,2013-03-29 23:35:00,
2013-03-29 18:40:00,51.8,33.2,30.31,ESE,115,0.0,1.0,49,0.00,,,0.00,Wunderground v.1.15,2013-03-29 23:40:00,
2013-03-29 18:45:00,51.7,34.1,30.32,ESE,115,0.0,1.0,51,0.00,,,0.00,Wunderground v.1.15,2013-03-29 23:45:00,
2013-03-29 18:50:00,51.4,34.3,30.32,ESE,114,0.0,0.0,52,0.00,,,0.00,Wunderground v.1.15,2013-03-29 23:50:00,
2013-03-29 18:55:00,50.8,34.3,30.32,ESE,115,0.0,0.0,53,0.00,,,0.00,Wunderground v.1.15,2013-03-29 23:55:00,
2013-03-29 19:05:00,49.9,34.8,30.32,ESE,115,0.0,0.0,56,0.00,,,0.00,Wunderground v.1.15,2013-03-30 00:05:00,
2013-03-29 19:15:00,48.6,34.5,30.31,ESE,115,0.0,0.0,58,0.00,,,0.00,Wunderground v.1.15,2013-03-30 00:15:00,
2013-03-29 19:20:00,48.5,34.8,30.32,ESE,114,0.0,0.0,59,0.00,,,0.00,Wunderground v.1.15,2013-03-30 00:20:00,
2013-03-29 19:25:00,48.3,34.6,30.31,ESE,115,0.0,0.0,59,0.00,,,0.00,Wunderground v.1.15,2013-03-30 00:25:00,
2013-03-29 19:30:00,47.7,34.9,30.31,ESE,115,0.0,0.0,61,0.00,,,0.00,Wunderground v.1.15,2013-03-30 00:30:00,
2013-03-29 19:40:00,45.1,34.8,30.31,ESE,114,0.0,0.0,67,0.00,,,0.00,Wunderground v.1.15,2013-03-30 00:40:00,
2013-03-29 19:45:00,43.7,34.9,30.31,ESE,115,0.0,0.0,71,0.00,,,0.00,Wunderground v.1.15,2013-03-30 00:45:00,
2013-03-29 19:55:00,41.7,34.4,30.31,ESE,115,0.0,0.0,75,0.00,,,0.00,Wunderground v.1.15,2013-03-30 00:55:00,
2013-03-29 20:00:00,41.2,34.5,30.31,ESE,114,0.0,0.0,77,0.00,,,0.00,Wunderground v.1.15,2013-03-30 01:00:00,
2013-03-29 20:05:00,40.7,34.0,30.32,ESE,115,0.0,0.0,77,0.00,,,0.00,Wunderground v.1.15,2013-03-30 01:05:00,
2013-03-29 20:15:00,40.2,33.9,30.32,ESE,115,0.0,0.0,78,0.00,,,0.00,Wunderground v.1.15,2013-03-30 01:15:00,
2013-03-29 20:20:00,39.9,33.6,30.32,ESE,115,0.0,0.0,78,0.00,,,0.00,Wunderground v.1.15,2013-03-30 01:20:00,
2013-03-29 20:30:00,39.0,33.0,30.32,ESE,114,0.0,0.0,79,0.00,,,0.00,Wunderground v.1.15,2013-03-30 01:30:00,
2013-03-29 20:35:00,38.7,33.1,30.32,ESE,115,0.0,0.0,80,0.00,,,0.00,Wunderground v.1.15,2013-03-30 01:35:00,
2013-03-29 20:40:00,38.3,33.0,30.32,ESE,114,0.0,0.0,81,0.00,,,0.00,Wunderground v.1.15,2013-03-30 01:40:00,
2013-03-29 20:45:00,38.0,33.0,30.32,ESE,115,0.0,0.0,82,0.00,,,0.00,Wunderground v.1.15,2013-03-30 01:45:00,
2013-03-29 20:55:00,37.5,32.8,30.32,ESE,115,0.0,1.0,83,0.00,,,0.00,Wunderground v.1.15,2013-03-30 01:55:00,
2013-03-29 21:00:00,37.8,32.8,30.32,ESE,114,0.0,0.0,82,0.00,,,0.00,Wunderground v.1.15,2013-03-30 02:00:00,
2013-03-29 21:05:00,38.1,32.8,30.32,ESE,115,0.0,0.0,81,0.00,,,0.00,Wunderground v.1.15,2013-03-30 02:05:00,
2013-03-29 21:15:00,38.9,32.6,30.32,ESE,114,0.0,0.0,78,0.00,,,0.00,Wunderground v.1.15,2013-03-30 02:15:00,
2013-03-29 21:25:00,39.0,32.1,30.32,ESE,114,0.0,0.0,76,0.00,,,0.00,Wunderground v.1.15,2013-03-30 02:25:00,
2013-03-29 21:30:00,39.1,31.8,30.32,ESE,115,0.0,0.0,75,0.00,,,0.00,Wunderground v.1.15,2013-03-30 02:30:00,
2013-03-29 21:35:00,38.7,31.8,30.32,ESE,115,0.0,0.0,76,0.00,,,0.00,Wunderground v.1.15,2013-03-30 02:35:00,
2013-03-29 21:45:00,37.8,31.2,30.32,ESE,114,0.0,0.0,77,0.00,,,0.00,Wunderground v.1.15,2013-03-30 02:45:00,
2013-03-29 21:50:00,37.2,31.0,30.32,ESE,115,0.0,0.0,78,0.00,,,0.00,Wunderground v.1.15,2013-03-30 02:50:00,
2013-03-29 21:55:00,36.8,30.9,30.32,ESE,114,0.0,0.0,79,0.00,,,0.00,Wunderground v.1.15,2013-03-30 02:55:00,
2013-03-29 22:00:00,36.8,30.9,30.32,ESE,115,0.0,0.0,79,0.00,,,0.00,Wunderground v.1.15,2013-03-30 03:00:00,
2013-03-29 22:05:00,36.5,30.6,30.32,ESE,114,0.0,0.0,79,0.00,,,0.00,Wunderground v.1.15,2013-03-30 03:05:00,
2013-03-29 22:15:00,36.0,30.4,30.33,ESE,115,0.0,0.0,80,0.00,,,0.00,Wunderground v.1.15,2013-03-30 03:15:00,
2013-03-29 22:20:00,35.5,30.2,30.33,ESE,115,0.0,0.0,81,0.00,,,0.00,Wunderground v.1.15,2013-03-30 03:20:00,
2013-03-29 22:25:00,35.1,29.9,30.33,ESE,115,0.0,0.0,81,0.00,,,0.00,Wunderground v.1.15,2013-03-30 03:25:00,
2013-03-29 22:30:00,34.8,29.9,30.33,ESE,114,0.0,0.0,82,0.00,,,0.00,Wunderground v.1.15,2013-03-30 03:30:00,
2013-03-29 22:40:00,34.2,29.9,30.33,ESE,115,0.0,0.0,84,0.00,,,0.00,Wunderground v.1.15,2013-03-30 03:40:00,
2013-03-29 22:45:00,33.6,29.3,30.33,ESE,114,0.0,0.0,84,0.00,,,0.00,Wunderground v.1.15,2013-03-30 03:45:00,
2013-03-29 22:50:00,33.2,28.9,30.33,ESE,115,0.0,0.0,84,0.00,,,0.00,Wunderground v.1.15,2013-03-30 03:50:00,
2013-03-29 22:55:00,32.9,28.6,30.33,ESE,115,0.0,0.0,84,0.00,,,0.00,Wunderground v.1.15,2013-03-30 03:55:00,
2013-03-29 23:00:00,32.7,28.7,30.33,ESE,115,0.0,0.0,85,0.00,,,0.00,Wunderground v.1.15,2013-03-30 04:00:00,
2013-03-29 23:05:00,32.5,28.5,30.33,ESE,114,0.0,0.0,85,0.00,,,0.00,Wunderground v.1.15,2013-03-30 04:05:00,
2013-03-29 23:15:00,32.1,28.4,30.32,ESE,115,0.0,0.0,86,0.00,,,0.00,Wunderground v.1.15,2013-03-30 04:15:00,
2013-03-29 23:25:00,32.1,28.7,30.32,ESE,115,0.0,0.0,87,0.00,,,0.00,Wunderground v.1.15,2013-03-30 04:25:00,
2013-03-29 23:30:00,32.1,28.7,30.32,ESE,114,0.0,0.0,87,0.00,,,0.00,Wunderground v.1.15,2013-03-30 04:30:00,
2013-03-29 23:35:00,32.1,28.7,30.32,ESE,115,0.0,0.0,87,0.00,,,0.00,Wunderground v.1.15,2013-03-30 04:35:00,
2013-03-29 23:40:00,32.3,29.1,30.32,ESE,115,0.0,0.0,88,0.00,,,0.00,Wunderground v.1.15,2013-03-30 04:40:00,
2013-03-29 23:45:00,32.6,29.4,30.32,ESE,115,0.0,0.0,88,0.00,,,0.00,Wunderground v.1.15,2013-03-30 04:45:00,
2013-03-29 23:50:00,32.8,29.4,30.32,ESE,115,0.0,0.0,87,0.00,,,0.00,Wunderground v.1.15,2013-03-30 04:50:00,
2013-03-29 23:55:00,32.9,29.2,30.32,ESE,115,0.0,0.0,86,0.00,,,0.00,Wunderground v.1.15,2013-03-30 04:55:00,